Latest Weather Observations for Sydney Harbour

IDN60801

Issued at 3:03 am EDT Sunday 1 February 2015 (issued every 30 minutes, with the page automatically refreshed every 10 minutes)

About weather observations | Map of weather stations | Latest weather observations for NSW | Other Formats
Station Details ID: 066196 Name: WEDDING CAKE WEST Lat: -33.84 Lon: 151.26 Height: 6.0 m
Data from the previous 72 hours. | See also: Recent months for locations in New South Wales
Date/Time
EDT
Temp
°C
App
Temp
°C
Dew
Point
Rel
Hum
%
Delta-T
°C
Wind Press
QNH
hPa
Press
MSL
hPa
Rain
since 9 am
mm
Dir
 
Spd
km/h
Gust
km/h
Spd
kts
Gust
kts
01/03:00am 21.0 - - - - SSW 13 17 7 9 - - -
01/02:30am 21.3 - - - - S 9 15 5 8 - - -
01/02:00am 21.7 - - - - SSE 7 7 4 4 - - -
01/01:30am 21.7 - - - - SSE 4 7 2 4 - - -
01/01:00am 21.8 - - - - SSE 6 7 3 4 - - -
01/12:30am 21.8 - - - - SSE 6 7 3 4 - - -
01/12:00am 22.2 - - - - SSE 7 9 4 5 - - -
 
Date/Time
EDT
Temp
°C
App
Temp
°C
Dew
Point
Rel
Hum
%
Delta-T
°C
Wind Press
QNH
hPa
Press
MSL
hPa
Rain
since 9 am
mm
Dir
 
Spd
km/h
Gust
km/h
Spd
kts
Gust
kts
31/11:30pm 21.9 - - - - SSE 7 9 4 5 - - -
31/11:00pm 21.9 - - - - SE 9 11 5 6 - - -
31/10:30pm 21.9 - - - - SE 7 9 4 5 - - -
31/10:00pm 21.9 - - - - SE 9 9 5 5 - - -
31/09:30pm 21.9 - - - - SE 7 9 4 5 - - -
31/09:00pm 22.2 - - - - SE 9 11 5 6 - - -
31/08:30pm 22.2 - - - - SE 11 15 6 8 - - -
31/08:00pm 22.4 - - - - SE 13 17 7 9 - - -
31/07:30pm 22.4 - - - - SE 15 19 8 10 - - -
31/07:00pm 22.5 - - - - ESE 11 15 6 8 - - -
31/06:30pm 22.5 - - - - SE 17 20 9 11 - - -
31/06:00pm 22.7 - - - - SE 17 20 9 11 - - -
31/05:30pm 22.5 - - - - SE 19 22 10 12 - - -
31/05:00pm 23.2 - - - - ESE 17 22 9 12 - - -
31/04:30pm 22.9 - - - - ESE 17 24 9 13 - - -
31/04:00pm 23.3 - - - - E 15 20 8 11 - - -
31/03:30pm 23.2 - - - - E 17 20 9 11 - - -
31/03:00pm 23.0 - - - - E 19 24 10 13 - - -
31/02:30pm 22.6 - - - - SE 19 24 10 13 - - -
31/02:00pm 22.7 - - - - ESE 17 20 9 11 - - -
31/01:30pm 22.3 - - - - ESE 19 22 10 12 - - -
31/01:00pm 22.1 - - - - ESE 19 26 10 14 - - -
31/12:30pm 21.9 - - - - SE 20 26 11 14 - - -
31/12:00pm 21.5 - - - - SE 22 28 12 15 - - -
31/11:30am 21.4 - - - - SE 19 24 10 13 - - -
31/11:00am 22.6 - - - - S 11 17 6 9 - - -
31/10:30am 22.2 - - - - WSW 6 7 3 4 - - -
31/10:00am 21.5 - - - - WSW 6 7 3 4 - - -
31/09:30am 22.2 - - - - CALM 0 0 0 0 - - -
31/09:00am 20.3 - - - - WSW 9 11 5 6 - - -
31/08:30am 19.6 - - - - WSW 9 11 5 6 - - -
31/08:00am 19.4 - - - - W 4 13 2 7 - - -
31/07:30am 19.6 - - - - W 9 11 5 6 - - -
31/07:00am 18.6 - - - - W 13 15 7 8 - - -
31/06:30am 18.1 - - - - WSW 11 13 6 7 - - -
31/06:00am 18.4 - - - - W 13 15 7 8 - - -
31/05:30am 19.1 - - - - W 13 17 7 9 - - -
31/05:00am 19.0 - - - - W 11 15 6 8 - - -
31/04:30am 19.5 - - - - SSW 7 9 4 5 - - -
31/04:00am 19.9 - - - - SW 17 20 9 11 - - -
31/03:30am 20.0 - - - - SW 17 20 9 11 - - -
31/03:00am 20.1 - - - - SW 19 20 10 11 - - -
31/02:30am 20.4 - - - - SW 20 24 11 13 - - -
31/02:00am 20.5 - - - - SW 19 24 10 13 - - -
31/01:30am 20.6 - - - - SW 20 24 11 13 - - -
31/01:00am 20.8 - - - - SSW 19 24 10 13 - - -
31/12:30am 21.0 - - - - SSW 20 26 11 14 - - -
31/12:00am 21.0 - - - - SSW 20 24 11 13 - - -
 
Date/Time
EDT
Temp
°C
App
Temp
°C
Dew
Point
Rel
Hum
%
Delta-T
°C
Wind Press
QNH
hPa
Press
MSL
hPa
Rain
since 9 am
mm
Dir
 
Spd
km/h
Gust
km/h
Spd
kts
Gust
kts
30/11:30pm 21.2 - - - - SSW 17 20 9 11 - - -
30/11:00pm 21.2 - - - - SSW 15 22 8 12 - - -
30/10:30pm 21.3 - - - - SSW 20 26 11 14 - - -
30/10:00pm 21.4 - - - - SSW 17 26 9 14 - - -
30/09:30pm 21.5 - - - - SSW 24 33 13 18 - - -
30/09:00pm 21.6 - - - - SSW 24 30 13 16 - - -
30/08:30pm 21.6 - - - - S 22 30 12 16 - - -
30/08:00pm 21.6 - - - - S 28 35 15 19 - - -
30/07:30pm 22.0 - - - - S 28 37 15 20 - - -
30/07:00pm 22.2 - - - - S 26 32 14 17 - - -
30/06:30pm 22.4 - - - - S 26 33 14 18 - - -
30/06:00pm 22.4 - - - - S 22 33 12 18 - - -
30/05:30pm 22.5 - - - - S 17 22 9 12 - - -
30/05:00pm 23.2 - - - - SSE 20 30 11 16 - - -
30/04:30pm 23.0 - - - - SSE 24 32 13 17 - - -
30/04:00pm 23.4 - - - - SSE 20 28 11 15 - - -
30/03:30pm 22.4 - - - - SSE 28 39 15 21 - - -
30/03:00pm 22.4 - - - - SSE 19 28 10 15 - - -
30/02:30pm 22.9 - - - - SW 28 46 15 25 - - -
30/02:29pm 23.2 - - - - WSW 28 46 15 25 - - -
30/02:00pm 23.2 - - - - WSW 32 46 17 25 - - -
30/01:30pm 22.6 - - - - WSW 32 50 17 27 - - -
30/01:29pm 22.5 - - - - WSW 32 50 17 27 - - -
30/01:25pm 22.5 - - - - WSW 35 50 19 27 - - -
30/01:00pm 21.7 - - - - SW 22 30 12 16 - - -
30/12:30pm 21.9 - - - - WSW 26 39 14 21 - - -
30/12:00pm 21.0 - - - - WSW 19 30 10 16 - - -
30/11:30am 20.2 - - - - WSW 20 32 11 17 - - -
30/11:00am 19.7 - - - - WSW 20 28 11 15 - - -
30/10:30am 19.2 - - - - W 22 33 12 18 - - -
30/10:00am 18.8 - - - - WSW 24 35 13 19 - - -
30/09:30am 18.5 - - - - WSW 24 35 13 19 - - -
30/09:00am 18.1 - - - - WSW 26 33 14 18 - - -
30/08:30am 17.8 - - - - W 26 35 14 19 - - -
30/08:00am 17.7 - - - - W 24 33 13 18 - - -
30/07:30am 16.9 - - - - W 28 33 15 18 - - -
30/07:00am 16.7 - - - - W 22 28 12 15 - - -
30/06:30am 16.7 - - - - W 24 30 13 16 - - -
30/06:00am 16.6 - - - - W 20 28 11 15 - - -
30/05:30am 16.8 - - - - W 22 28 12 15 - - -
30/05:00am 17.1 - - - - W 20 26 11 14 - - -
30/04:30am 17.3 - - - - W 24 37 13 20 - - -
30/04:00am 17.4 - - - - W 22 30 12 16 - - -
30/03:30am 17.6 - - - - W 20 28 11 15 - - -
30/03:00am 17.5 - - - - W 24 30 13 16 - - -
30/02:30am 17.6 - - - - WSW 22 30 12 16 - - -
30/02:00am 17.8 - - - - WSW 24 30 13 16 - - -
30/01:30am 17.9 - - - - WSW 22 32 12 17 - - -
30/01:00am 17.9 - - - - W 22 30 12 16 - - -
30/12:30am 18.5 - - - - SW 30 37 16 20 - - -
30/12:00am 18.7 - - - - SW 30 37 16 20 - - -
 
Date/Time
EDT
Temp
°C
App
Temp
°C
Dew
Point
Rel
Hum
%
Delta-T
°C
Wind Press
QNH
hPa
Press
MSL
hPa
Rain
since 9 am
mm
Dir
 
Spd
km/h
Gust
km/h
Spd
kts
Gust
kts
29/11:30pm 19.0 - - - - SSW 33 44 18 24 - - -
29/11:00pm 19.2 - - - - SSW 37 48 20 26 - - -
29/10:30pm 19.5 - - - - SSW 37 50 20 27 - - -
29/10:00pm 19.7 - - - - SSW 39 50 21 27 - - -
29/09:30pm 19.9 - - - - SSW 43 57 23 31 - - -
29/09:10pm 19.8 - - - - SSW 41 59 22 32 - - -
29/09:00pm 19.9 - - - - SSW 46 57 25 31 - - -
29/08:30pm 20.0 - - - - SSW 46 67 25 36 - - -
29/08:04pm 20.2 - - - - SSW 46 65 25 35 - - -
29/08:00pm 20.1 - - - - SSW 50 65 27 35 - - -
29/07:30pm 20.1 - - - - S 46 59 25 32 - - -
29/07:00pm 20.4 - - - - S 43 56 23 30 - - -
29/06:30pm 20.3 - - - - S 43 57 23 31 - - -
29/06:03pm 20.8 - - - - S 39 57 21 31 - - -
29/06:00pm 20.8 - - - - S 41 57 22 31 - - -
29/05:37pm 20.7 - - - - S 43 61 23 33 - - -
29/05:30pm 20.8 - - - - S 46 59 25 32 - - -
29/05:00pm 20.6 - - - - S 44 56 24 30 - - -
29/04:38pm 20.7 - - - - S 43 61 23 33 - - -
29/04:30pm 20.6 - - - - S 48 65 26 35 - - -
29/04:22pm 20.4 - - - - S 46 65 25 35 - - -
29/04:00pm 20.3 - - - - S 44 59 24 32 - - -
29/03:30pm 20.5 - - - - S 44 54 24 29 - - -
29/03:00pm 20.1 - - - - S 44 54 24 29 - - -
29/02:30pm 20.4 - - - - SSW 46 65 25 35 - - -
29/02:00pm 20.4 - - - - S 39 57 21 31 - - -
29/01:59pm 20.5 - - - - S 37 57 20 31 - - -
29/01:30pm 20.4 - - - - S 39 46 21 25 - - -
29/01:00pm 20.4 - - - - SSW 41 56 22 30 - - -
29/12:30pm 19.9 - - - - SSW 41 54 22 29 - - -
29/12:28pm 19.9 - - - - SW 41 54 22 29 - - -
29/12:23pm 19.8 - - - - SSW 43 54 23 29 - - -
29/12:00pm 19.4 - - - - SSW 43 52 23 28 - - -
29/11:30am 19.3 - - - - SSW 43 54 23 29 - - -
29/11:00am 19.0 - - - - SSW 41 54 22 29 - - -
29/10:30am 18.8 - - - - SSW 41 54 22 29 - - -
29/10:00am 18.6 - - - - SW 39 52 21 28 - - -
29/09:30am 18.1 - - - - SSW 37 50 20 27 - - -
29/09:00am 17.9 - - - - SSW 37 44 20 24 - - -
29/08:30am 17.8 - - - - SW 37 46 20 25 - - -
29/08:00am 17.5 - - - - SW 35 44 19 24 - - -
29/07:52am 17.5 - - - - SW 33 43 18 23 - - -
29/07:30am 16.9 - - - - WSW 24 32 13 17 - - -
29/07:00am 16.8 - - - - WSW 28 39 15 21 - - -
29/06:30am 17.0 - - - - SW 28 35 15 19 - - -
29/06:00am 16.1 - - - - WSW 20 28 11 15 - - -
29/05:30am 16.3 - - - - W 24 33 13 18 - - -
29/05:00am 16.3 - - - - W 26 35 14 19 - - -
29/04:30am 16.9 - - - - WSW 24 32 13 17 - - -
29/04:00am 17.0 - - - - WSW 22 30 12 16 - - -
29/03:30am 17.7 - - - - SW 32 39 17 21 - - -

Other Formats:

Comma delimited format used in spreadsheet applications
http://www.bom.gov.au/fwo/IDN60801/IDN60801.95766.axf

JavaScript Object Notation format (JSON) in row-major order
http://www.bom.gov.au/fwo/IDN60801/IDN60801.95766.json